This is the latest recevied weather packets stored in our database for station/object HF3P-11. If no packets are shown the sender has not sent any weather packets the latest 10 day(s).
| Time | Temp. | Humidity | Pressure | Rain* | Wind** | Luminosity | Snow |
|---|---|---|---|---|---|---|---|
| 1777697395 | 14.44° C | 70% | 1017.1 hPa | 0 mm | - | - | - |
| 1777697102 | 13.89° C | 73% | 1017.3 hPa | 0 mm | - | - | - |
| 1777696794 | 12.78° C | 76% | 1017.3 hPa | 0 mm | - | - | - |
| 1777696495 | 11.11° C | 79% | 1017.1 hPa | 0 mm | - | - | - |
| 1777696204 | 10° C | 79% | 1017 hPa | 0 mm | - | - | - |
| 1777695903 | 9.44° C | 79% | 1017.1 hPa | 0 mm | - | - | - |
| 1777695603 | 8.89° C | 80% | 1017 hPa | 0 mm | - | - | - |
| 1777695295 | 8.33° C | 82% | 1017.1 hPa | 0 mm | - | - | - |
| 1777695002 | 7.78° C | 83% | 1017.2 hPa | 0 mm | - | - | - |
| 1777694695 | 6.11° C | 82% | 1017.1 hPa | 0 mm | - | - | - |
| 1777694403 | 6.11° C | 82% | 1017 hPa | 0 mm | - | - | - |
| 1777694103 | 6.11° C | 82% | 1017.1 hPa | 0 mm | - | - | - |
| 1777693795 | 6.11° C | 82% | 1017 hPa | 0 mm | - | - | - |
| 1777693502 | 6.11° C | 81% | 1017.3 hPa | 0 mm | - | - | - |
| 1777693194 | 6.11° C | 81% | 1017.2 hPa | 0 mm | - | - | - |
| 1777692903 | 6.11° C | 81% | 1017.3 hPa | 0 mm | - | - | - |
| 1777692595 | 6.11° C | 81% | 1017.4 hPa | 0 mm | - | - | - |
| 1777692295 | 6.11° C | 81% | 1017.2 hPa | 0 mm | - | - | - |
| 1777692003 | 6.11° C | 80% | 1017.3 hPa | 0 mm | - | - | - |
| 1777691695 | 6.11° C | 80% | 1017.3 hPa | 0 mm | - | - | - |
| 1777691402 | 6.11° C | 80% | 1017.2 hPa | 0 mm | - | - | - |
| 1777691096 | 6.11° C | 80% | 1017.4 hPa | 0 mm | - | - | - |
| 1777690803 | 6.11° C | 80% | 1017.4 hPa | 0 mm | - | - | - |
| 1777690495 | 6.11° C | 80% | 1017.1 hPa | 0 mm | - | - | - |
| 1777690202 | 6.11° C | 80% | 1017.3 hPa | 0 mm | - | - | - |
* Rain latest hour (hover to see other rain measurements)
** Current wind speed in m/s (hover to see current wind gust speed)